Location: Kielce
(50.8833°N, 20.6167°E)
Time: 09:54:59
(UTC+02:00)

SR - All Passes

Search period start: 20 April 2021 00:00
Search period end: 30 April 2021 00:00
Orbit: 573 x 882 km, 66.7° (Epoch: 19 April)

Date Brightness Start Highest point End Pass type
(mag) Time Alt. Az. Time Alt. Az. Time Alt. Az.
20 Apr - 06:57:09 10° SSE 07:01:16 21° ESE 07:05:31 10° ENE daylight
20 Apr - 08:36:56 10° SW 08:42:40 87° NW 08:48:40 10° NE daylight
20 Apr - 10:20:34 10° W 10:25:36 29° NNW 10:30:44 10° NNE daylight
20 Apr - 12:05:48 10° NW 12:09:40 17° N 12:13:31 10° NE daylight
20 Apr - 13:49:28 10° NNW 13:53:58 22° NNE 13:58:22 10° ENE daylight
20 Apr - 15:31:39 10° NNW 15:37:26 52° NE 15:42:54 10° ESE daylight
20 Apr - 17:14:06 10° NW 17:19:27 38° WSW 17:24:29 10° S daylight
21 Apr - 06:10:25 10° ESE 06:12:03 11° E 06:13:43 10° E daylight
21 Apr - 07:47:22 10° SSW 07:52:56 58° ESE 07:58:45 10° NE daylight
21 Apr - 09:29:55 10° WSW 09:35:21 40° NW 09:40:57 10° NNE daylight
21 Apr - 11:14:56 10° WNW 11:19:06 19° NNW 11:23:17 10° NNE daylight
21 Apr - 12:59:23 10° NNW 13:03:27 18° NNE 13:07:27 10° NE daylight
21 Apr - 14:41:52 10° NNW 14:47:18 36° NE 14:52:30 10° ESE daylight
21 Apr - 16:24:02 10° NW 16:29:51 66° WSW 16:35:18 10° SSE daylight
21 Apr - 18:08:25 10° WNW 18:10:48 13° W 18:13:09 10° SW daylight
22 Apr - 06:58:19 10° S 07:03:22 34° ESE 07:08:38 10° NE daylight
22 Apr - 08:39:34 10° SW 08:45:16 59° NW 08:51:11 10° NE daylight
22 Apr - 10:23:59 10° WNW 10:28:37 23° NNW 10:33:17 10° NNE daylight
22 Apr - 12:09:03 10° NW 12:12:52 17° N 12:16:39 10° NE daylight
22 Apr - 13:52:03 10° NNW 13:57:00 27° NNE 14:01:48 10° E daylight
22 Apr - 15:34:09 10° NW 15:40:04 78° NE 15:45:37 10° SE daylight
22 Apr - 17:17:07 10° WNW 17:21:35 23° WSW 17:25:48 10° SSW daylight
23 Apr - 06:10:01 10° SSE 06:14:00 20° ESE 06:18:06 10° ENE daylight
23 Apr - 07:49:36 10° SW 07:55:21 89° SE 08:01:22 10° NE daylight
23 Apr - 09:33:08 10° W 09:38:14 30° NNW 09:43:25 10° NNE daylight
23 Apr - 11:18:24 10° NW 11:22:16 17° N 11:26:08 10° NE daylight
23 Apr - 13:02:08 10° NNW 13:06:35 21° NNE 13:10:55 10° ENE daylight
23 Apr - 14:44:20 10° NNW 14:50:05 50° NE 14:55:31 10° ESE daylight
23 Apr - 16:26:45 10° NW 16:32:09 40° WSW 16:37:13 10° S daylight
24 Apr - 05:23:46 10° ESE 05:24:48 10° E 05:25:50 10° E daylight
24 Apr - 07:00:05 10° SSW 07:05:38 55° ESE 07:11:26 10° NE daylight
24 Apr - 08:42:31 10° WSW 08:48:00 41° NW 08:53:38 10° NNE daylight
24 Apr - 10:27:30 10° WNW 10:31:43 20° NNW 10:35:56 10° NNE daylight
24 Apr - 12:12:03 10° NNW 12:16:03 18° N 12:20:00 10° NE daylight
24 Apr - 13:54:33 10° NNW 13:59:56 35° NE 14:05:04 10° E daylight
24 Apr - 15:36:43 10° NW 15:42:33 69° WSW 15:47:59 10° SSE daylight
24 Apr - 17:20:52 10° WNW 17:23:33 14° WSW 17:26:09 10° SW daylight
25 Apr - 06:11:05 10° S 06:16:05 32° ESE 06:21:17 10° NE daylight
25 Apr - 07:52:13 10° SW 07:57:57 62° NW 08:03:52 10° NE daylight
25 Apr - 09:36:33 10° WNW 09:41:14 24° NNW 09:45:57 10° NNE daylight
25 Apr - 11:21:40 10° NW 11:25:28 17° N 11:29:14 10° NE daylight
25 Apr - 13:04:44 10° NNW 13:09:37 26° NNE 13:14:22 10° E daylight
25 Apr - 14:46:50 10° NW 14:52:44 75° NE 14:58:15 10° SE daylight
25 Apr - 16:29:44 10° WNW 16:34:18 25° WSW 16:38:37 10° SSW daylight
26 Apr - 05:22:52 10° SSE 05:26:43 19° ESE 05:30:41 10° ENE daylight
26 Apr - 07:02:17 10° SSW 07:08:02 85° SE 07:14:02 10° NE daylight
26 Apr - 08:45:43 10° W 08:50:52 31° NNW 08:56:06 10° NNE daylight
26 Apr - 10:30:58 10° NW 10:34:53 18° N 10:38:45 10° NE daylight
26 Apr - 12:14:49 10° NNW 12:19:11 21° NNE 12:23:28 10° ENE daylight
26 Apr - 13:57:02 10° NNW 14:02:44 48° NE 14:08:07 10° ESE daylight
26 Apr - 15:39:24 10° NW 15:44:52 42° WSW 15:49:57 10° S daylight
27 Apr - 06:12:47 10° SSW 06:18:20 52° ESE 06:24:05 10° NE daylight
27 Apr - 07:55:07 10° WSW 08:00:39 43° NW 08:06:20 10° NNE daylight
27 Apr - 09:40:03 10° WNW 09:44:19 20° NNW 09:48:35 10° NNE daylight
27 Apr - 11:24:41 10° NNW 11:28:39 18° N 11:32:34 10° NE daylight
27 Apr - 13:07:15 10° NNW 13:12:34 33° NE 13:17:38 10° E daylight
27 Apr - 14:49:23 10° NW 14:55:14 72° WSW 15:00:40 10° SSE daylight
27 Apr - 16:33:22 10° WNW 16:36:17 14° WSW 16:39:06 10° SW daylight
28 Apr - 05:23:51 10° S 05:28:48 31° ESE 05:33:55 10° NE daylight
28 Apr - 07:04:50 10° SW 07:10:36 65° NW 07:16:33 10° NE daylight
28 Apr - 08:49:07 10° WNW 08:53:51 24° NNW 08:58:37 10° NNE daylight
28 Apr - 10:34:16 10° NW 10:38:04 17° N 10:41:49 10° NE daylight
28 Apr - 12:17:25 10° NNW 12:22:15 25° NNE 12:26:54 10° E daylight
28 Apr - 13:59:31 10° NW 14:05:24 71° NE 14:10:53 10° SE daylight
28 Apr - 15:42:22 10° NW 15:47:01 26° WSW 15:51:24 10° SSW daylight
29 Apr - 04:35:45 10° SE 04:39:27 18° ESE 04:43:15 10° ENE visible
29 Apr - 06:14:57 10° SSW 06:20:44 82° SE 06:26:43 10° NE daylight
29 Apr - 07:58:17 10° W 08:03:30 32° NNW 08:08:47 10° NNE daylight
29 Apr - 09:43:33 10° NW 09:47:28 18° N 09:51:22 10° NNE daylight
29 Apr - 11:27:28 10° NNW 11:31:48 20° NNE 11:36:00 10° ENE daylight
29 Apr - 13:09:43 10° NNW 13:15:23 46° NE 13:20:43 10° ESE daylight
29 Apr - 14:52:05 10° NW 14:57:34 45° WSW 15:02:40 10° S daylight
